YZ-1 R/B, 43605

Orbit data source: Space-Track

YZ-1 R/B, 43605 is space debris originally from a launch on Fri, 24 Aug 2018 UTC launched from the Xichang Space Center, China (XSC). Debris objects in space refer to the collection of defunct objects orbiting the Earth. Examples of debris include non-operational satellites, rocket bodies, and fragments generated from explosions, collisions, or faulty payload assembly.

Loading next visibility...
Identifier
43605, 2018-067D
Orbit
Active
Country
Flag of CNCN / PRC
Related business
Manufacturer
CALT
Mission
Spacecraft
Bus & Motor
YZ-1, Unknown motor
Mass
~2,075 kg wet, ~2,075 kg dry
Launch date (UTC)
2018-08-24 (7 years ago)
Launch vehicle
Unknown
Launch site
Xichang Space Center, China (XSC)
Object type
Payload
Rocket body
Debris
Shape & HBR
Double Cone, 2.0 m
Radar Cross Section
5.890 m², Large (>1 m²)

Expand to show TLE details & history
Last TLE update: 2 days ago

TLE from 2 days ago
0 YZ-1 R/B
1 43605U 18067D   25257.26873915  .00000003  00000-0  00000-0 0  9995
2 43605  53.8197 197.0048 0052466  45.1368 315.2734  1.78798198 46072
Epoch: 2025-09-14T06:26Z
TLE epoch observation values (Epoch: 2025-09-14T06:26:59.062Z)
Latitude
-0.00002°
Longitude
106.75986°
Altitude
22,189.913 km
Speed
3.742 km/s
True Right ascension
13h 07m 59s
True Declination
0° 00' 00"
Sunlit
Object was in daylight at epoch
Visualization orbit readout
Latitude
Unknown
Longitude
Unknown
Altitude
Unknown
Speed
Unknown
Apparent Right ascension
Unknown
Apparent Declination
Unknown
Sunlit
N/A
Visualization observer readout
Local Sidereal Time
23:30:29
Azimuth
Unknown
Elevation
Unknown
Doppler factor
Unknown
Orbital elements
Apogee altitude
22,446.675 km
Perigee altitude
22,145.79 km
Semi-major axis
28,674.37 km
Eccentricity
0.00525
Inclination
53.8197°
RAAN
197.0048°
Arg. of periapsis
45.1368°
True anomaly
314.84833°
Mean anomaly
315.2734°
Eccentric anomaly
315.06106°
Mean motion
0.44699 °/min
Orbital period
805.38 mins
BSTAR
0
Loading maneuver chart data...
Computing Atmospheric mass density...
Loading historical data...
Loading historical data...
Loading historical data...
Loading historical data...
Loading historical data...
Loading historical data...
Loading historical data...
Other satellites on launch #67 in the year 2018 (2018-08-24 UTC)

Documentation

Showing up to 5 results
|